This is the latest recevied weather packets stored in our database for station/object NE1CU. If no packets are shown the sender has not sent any weather packets the latest 10 day(s).
| Time | Temp. | Humidity | Pressure | Rain* | Wind** | Luminosity | Snow |
|---|---|---|---|---|---|---|---|
| 1777527645 | 9.44° C | 93% | 1009.4 hPa | 1.27 mm | - | 0 W/m² | - |
| 1777527341 | 9.44° C | 92% | 1008.9 hPa | 0 mm | - | 0 W/m² | - |
| 1777527037 | 9.44° C | 92% | 1008.9 hPa | 1.78 mm | - | 0 W/m² | - |
| 1777526732 | 9.44° C | 92% | 1009.2 hPa | 1.78 mm | - | 0 W/m² | - |
| 1777526428 | 9.44° C | 92% | 1009.5 hPa | 0 mm | - | 0 W/m² | - |
| 1777526123 | 9.44° C | 92% | 1009.7 hPa | 1.78 mm | - | 0 W/m² | - |
| 1777525819 | 9.44° C | 91% | 1009.7 hPa | 1.78 mm | - | 0 W/m² | - |
| 1777525517 | 9.44° C | 91% | 1009.9 hPa | 1.27 mm | - | 0 W/m² | - |
| 1777525214 | 9.44° C | 91% | 1009.9 hPa | 3.05 mm | - | 0 W/m² | - |
| 1777524910 | 9.44° C | 91% | 1009.8 hPa | 1.78 mm | - | 0 W/m² | - |
| 1777524607 | 9.44° C | 90% | 1009.9 hPa | 1.27 mm | - | 0 W/m² | - |
| 1777524306 | 9.44° C | 90% | 1009.9 hPa | 1.27 mm | - | 0 W/m² | - |
| 1777524001 | 9.44° C | 90% | 1010.1 hPa | 1.78 mm | - | 0 W/m² | - |
| 1777523697 | 9.44° C | 90% | 1010.1 hPa | 1.78 mm | - | 0 W/m² | - |
| 1777523393 | 10° C | 90% | 1010.3 hPa | 0 mm | - | 0 W/m² | - |
| 1777523090 | 10° C | 89% | 1010.4 hPa | 1.27 mm | - | 0 W/m² | - |
| 1777522786 | 10° C | 89% | 1010.7 hPa | 1.27 mm | - | 0 W/m² | - |
| 1777522483 | 10° C | 89% | 1010.9 hPa | 0 mm | - | 0 W/m² | - |
| 1777522181 | 10° C | 88% | 1010.8 hPa | 1.78 mm | - | 0 W/m² | - |
| 1777521877 | 10° C | 87% | 1011 hPa | 1.78 mm | - | 0 W/m² | - |
| 1777521573 | 10° C | 87% | 1011 hPa | 0 mm | - | 0 W/m² | - |
| 1777521271 | 10° C | 86% | 1010.8 hPa | 0 mm | - | 0 W/m² | - |
| 1777520968 | 10° C | 86% | 1010.9 hPa | 0 mm | - | 0 W/m² | - |
| 1777520665 | 10° C | 86% | 1011 hPa | 0 mm | - | 0 W/m² | - |
| 1777520361 | 10° C | 86% | 1010.8 hPa | 0 mm | - | 0 W/m² | - |
* Rain latest hour (hover to see other rain measurements)
** Current wind speed in m/s (hover to see current wind gust speed)